Location: *
(58.7167°N, 26.1833°E)
Time: 04:54:11
(UTC+00:00)

USA 229 - Pass Details

Date: 25 August 2019
Orbit: 1005 x 1207 km, 63.4° (Epoch: 31 August)

Event Time Altitude Azimuth Distance (km) Brightness Sun altitude
Rises 19:06:45 0° 307° (NW) 3,922 8.9 -10.7°
Reaches altitude 10° 19:09:28 10° 302° (WNW) 2,991 7.5 -11.0°
Maximum altitude 19:16:14 48° 231° (SW) 1,474 4.5 -11.6°
Enters shadow 19:22:51 12° 161° (SSE) 2,961 5.5 -12.2°
